This is the latest recevied weather packets stored in our database for station/object KS5S. If no packets are shown the sender has not sent any weather packets the latest 10 day(s).
| Time | Temp. | Humidity | Pressure | Rain* | Wind** | Luminosity | Snow |
|---|---|---|---|---|---|---|---|
| 1777919080 | 26.11° C | 63% | 1008.9 hPa | 0 mm | - | 954 W/m² | - |
| 1777918778 | 26.67° C | 62% | 1008.8 hPa | 0 mm | - | 1020 W/m² | - |
| 1777918475 | 26.11° C | 64% | 1009 hPa | 0 mm | - | 943 W/m² | - |
| 1777918174 | 25.56° C | 65% | 1008.9 hPa | 0 mm | - | 993 W/m² | - |
| 1777917872 | 26.11° C | 62% | 1009.1 hPa | 0 mm | - | 1003 W/m² | - |
| 1777917570 | 25.56° C | 66% | 1008.9 hPa | 0 mm | - | 970 W/m² | - |
| 1777917267 | 25.56° C | 65% | 1009.2 hPa | 0 mm | - | 465 W/m² | - |
| 1777916965 | 25° C | 64% | 1009.2 hPa | 0 mm | - | 1005 W/m² | - |
| 1777916662 | 25° C | 64% | 1009.5 hPa | 0 mm | - | 1000 W/m² | - |
| 1777916359 | 25° C | 64% | 1009.3 hPa | 0 mm | - | 960 W/m² | - |
| 1777916055 | 25° C | 63% | 1009.5 hPa | 0 mm | - | 947 W/m² | - |
| 1777915753 | 25.56° C | 65% | 1009.3 hPa | 0 mm | - | 945 W/m² | - |
| 1777915449 | 25° C | 64% | 1009.5 hPa | 0 mm | - | 949 W/m² | - |
| 1777915145 | 25° C | 63% | 1009.7 hPa | 0 mm | - | 944 W/m² | - |
| 1777914843 | 25° C | 64% | 1010 hPa | 0 mm | - | 940 W/m² | - |
| 1777914539 | 25° C | 64% | 1010 hPa | 0 mm | - | 939 W/m² | - |
| 1777914236 | 25° C | 65% | 1010 hPa | 0 mm | - | 923 W/m² | - |
| 1777913933 | 24.44° C | 64% | 1009.9 hPa | 0 mm | - | 926 W/m² | - |
| 1777913629 | 24.44° C | 66% | 1010.1 hPa | 0 mm | - | 888 W/m² | - |
| 1777913326 | 23.89° C | 67% | 1010 hPa | 0 mm | - | 794 W/m² | - |
| 1777913023 | 24.44° C | 66% | 1010.3 hPa | 0 mm | - | 809 W/m² | - |
| 1777912718 | 23.89° C | 68% | 1010.2 hPa | 0 mm | - | 892 W/m² | - |
| 1777912415 | 23.89° C | 67% | 1010.3 hPa | 0 mm | - | 839 W/m² | - |
| 1777912111 | 24.44° C | 67% | 1010.4 hPa | 0 mm | - | 834 W/m² | - |
| 1777911807 | 23.89° C | 67% | 1010.5 hPa | 0 mm | - | 760 W/m² | - |
* Rain latest hour (hover to see other rain measurements)
** Current wind speed in m/s (hover to see current wind gust speed)